Location: Essuiles
(49.4795°N, 2.2938°E)
Time: 13:59:30
(UTC+00:00)

Daily predictions for brighter satellites

Satellite Brightness Start Highest point End
(mag) Time Altitude Azimuth Time Altitude Azimuth Time Altitude Azimuth
Ariane Rocket 3.2 20:33:58 10° SSE 20:39:04 80° WSW 20:44:12 10° NNW
PSLV R/B 4.2 20:37:09 10° N 20:41:18 75° WNW 20:45:28 10° SSW
CZ-4B R/B 1.1 20:42:35 10° NNE 20:45:29 82° WNW 20:48:22 10° SSW
USA 234 4.3 20:41:46 10° ENE 20:47:59 47° N 20:54:11 10° WNW
ATLAS 2AS CENTAUR R/B 4.3 20:42:29 10° WNW 20:48:16 28° WSW 20:53:46 10° SSW
ARIANE 5 R/B 3.9 20:44:47 10° ESE 20:48:35 29° ENE 20:52:22 10° N
Terra 2.6 20:44:32 10° SE 20:48:57 40° ENE 20:53:24 10° N
SPOT 3 Rocket 3.6 20:45:28 10° SSE 20:50:41 86° ENE 20:55:57 10° NNW
SPOT 5 2.9 20:47:24 10° SSE 20:51:38 56° ENE 20:55:53 10° N
RESURS DK-1 3.4 20:48:05 10° NW 20:51:58 40° WSW 20:55:50 10° S
USA 276 2.1 20:49:41 10° W 20:52:43 81° N 20:55:45 10° E
FALCON 9 DEB 3.3 20:50:49 10° WNW 20:54:04 65° NNE 20:57:19 10° E
Cosmos 1455 4.0 20:51:05 10° NNW 20:54:29 31° W 20:57:52 10° SSW
Cosmos 1726 Rocket 4.0 20:52:58 10° N 20:57:09 45° ENE 21:01:15 10° SSE
IRAS Rocket 4.3 20:56:21 10° NNE 21:01:59 83° ESE 21:07:32 10° SSW
Cosmos 1331 Rocket 4.0 20:57:48 10° SSW 21:03:05 79° ESE 21:08:25 10° NNE
Cosmos 2074 Rocket 4.2 20:57:16 10° NNW 21:03:32 74° W 21:09:44 10° S
Cosmos 2082 Rocket 2.7 20:58:56 10° S 21:04:13 41° ESE 21:09:32 10° NE
Helios 1A Rocket 2.9 21:04:55 10° SSE 21:08:59 75° ENE 21:13:06 10° N
Spot 2 Rocket 3.5 21:04:18 10° SSE 21:09:25 84° ENE 21:14:33 10° NNW
Cosmos 1328 4.0 21:05:37 10° S 21:09:31 53° E 21:13:25 10° NNE
Cosmos 2084 Rocket 3.7 21:06:29 10° NW 21:10:18 54° SW 21:13:53 12° SSE
Cosmos 2360 Rocket 4.3 21:08:01 10° N 21:11:57 19° NE 21:15:52 10° E
Nadezhda 1 Rocket 3.9 21:08:50 10° S 21:14:53 78° E 21:20:58 10° NNE
X-37B 2.5 21:23:11 10° WSW 21:24:38 13° SSW 21:25:27 12° S
ERS-1 Rocket 3.1 21:22:07 11° SSE 21:27:00 80° WSW 21:32:04 10° NNW
Cosmos 1892 3.4 21:26:27 16° SSE 21:29:02 36° E 21:32:33 10° NNE
Meteor 1-21 Rocket 4.5 21:26:06 10° SSW 21:31:42 75° WNW 21:37:28 10° N
Cosmos 2228 4.2 21:30:44 10° NNW 21:34:40 38° W 21:38:36 10° SSW
Cosmos 1302 Rocket 3.9 21:30:01 10° SSW 21:35:11 75° ESE 21:40:23 10° NNE
Cosmos 2154 Rocket 4.5 21:31:47 10° NNW 21:37:53 59° W 21:43:55 10° S
Cosmos 192 4.3 21:33:32 10° SSW 21:38:26 90° W 21:43:23 10° NNE
Cosmos 968 Rocket 3.7 21:37:04 10° NNW 21:42:15 67° WSW 21:46:30 15° S
Cosmos 1892 Rocket 3.5 21:38:01 11° S 21:42:15 81° E 21:46:38 10° NNE
ASTRO F (AKARI) 4.5 21:40:19 19° SSE 21:42:43 77° ENE 21:46:12 10° NNW
Cosmos 1697 Rocket 4.0 21:39:40 10° NW 21:44:39 33° WSW 21:49:35 10° SSW
Cosmos 1980 Rocket 2.5 21:39:58 10° NW 21:45:35 61° WSW 21:50:07 16° S
SL-16 R/B 2.9 21:42:53 10° NNW 21:48:23 48° NE 21:52:57 15° SE
Cosmos 2058 Rocket 3.1 21:45:35 10° N 21:50:03 90° WNW 21:53:20 18° S
Cosmos 1408 2.3 21:48:44 17° S 21:51:16 81° E 21:54:45 10° NNE
Cosmos 1626 Rocket 4.3 21:50:06 20° SSE 21:52:33 37° E 21:56:35 10° NNE
SL-8 Rocket 4.0 21:46:56 10° N 21:53:12 78° E 21:58:01 18° SSE
CZ-2C R/B 3.8 21:49:25 10° NNE 21:53:58 75° WNW 21:58:25 10° SSW
Cosmos 2369 4.4 21:48:29 10° NW 21:53:58 48° WSW 21:58:31 15° S
ATLAS 5 CENTAUR R/B 1.5 21:50:51 12° SSW 21:54:05 45° SE 21:58:05 10° NE
USA 267 4.0 21:49:04 10° ENE 21:54:37 29° SE 21:59:31 13° S
Resurs 01 Rocket 4.4 21:53:40 10° WSW 21:54:55 11° W 21:56:10 10° WNW
SJ 16-02 2.6 21:56:34 10° N 22:00:35 33° ENE 22:03:35 16° ESE
SL-4 R/B 3.7 22:04:44 13° E 22:04:44 13° E 22:05:23 10° E
In-Cosmos 22 Rocket 4.2 21:59:05 16° S 22:03:27 67° E 22:08:49 10° NNE
COSMOS 2406 3.8 21:58:51 10° SW 22:04:33 59° WNW 22:10:15 10° NNE
Cosmos 1825 2.2 22:08:00 25° SSE 22:09:58 61° E 22:13:42 10° NNE
Cosmos 1833 Rocket 4.3 22:04:57 10° WSW 22:10:06 36° NW 22:15:17 10° NNE
Cosmos 1867 4.4 22:06:46 10° NW 22:11:50 40° WSW 22:15:18 19° S
Cosmos 2366 rocket 4.0 22:07:12 10° N 22:13:36 90° WSW 22:18:15 20° S
Cosmos 1869 3.2 22:12:25 10° N 22:16:21 87° E 22:18:25 27° S
Cosmos 2218 Rocket 4.1 22:13:37 10° N 22:20:04 82° W 22:24:43 20° S
Cosmos 2322 Rocket 2.5 22:16:52 10° NNW 22:22:31 60° ENE 22:26:28 20° SE
GP-B 3.3 22:19:00 10° N 22:23:26 69° W 22:26:26 20° SSW
Meteor 1-27 4.3 22:18:09 10° NNW 22:23:44 76° W 22:27:27 22° S
ARIANE 5 R/B 3.7 22:21:46 16° SSW 22:24:56 36° W 22:29:02 10° NNW
Terra 3.3 22:22:57 11° SSW 22:26:48 29° W 22:30:58 10° NW
SAR-Lupe-4 3.5 22:24:05 10° NNE 22:27:42 90° W 22:29:35 26° SSW
USA 276 2.3 22:25:29 10° W 22:28:23 43° SSW 22:28:42 41° S
FALCON 9 DEB 3.9 22:27:14 10° W 22:30:11 31° SW 22:30:31 30° SSW
USA 234 3.6 22:24:01 10° ESE 22:30:30 67° NNE 22:37:01 10° WNW
Cosmos 2278 4.5 22:30:28 10° NW 22:35:50 43° WSW 22:39:18 20° SSW
BREEZE-M DEB (TANK) 3.4 22:33:05 10° W 22:36:04 84° S 22:46:43 10° ESE
Cosmos 1633 2.4 22:39:01 38° S 22:40:11 69° E 22:43:39 10° NNE
Cosmos 1992 Rocket 4.3 22:37:42 11° SSW 22:42:46 68° WNW 22:48:01 10° NNE
Cosmos 2333 Rocket 3.3 22:37:54 10° NNW 22:43:19 40° NE 22:48:05 13° ESE
Okean 1-7 Rocket 4.0 22:40:57 19° SSW 22:44:03 60° WNW 22:48:33 10° N
Cosmos 1758 Rocket 3.6 22:42:24 30° SSE 22:44:24 63° E 22:48:47 10° NNE
ASTEX 1 4.2 22:42:26 10° N 22:47:16 48° WNW 22:51:10 15° SSW
Cosmos 2082 Rocket 3.5 22:42:58 10° WSW 22:48:20 41° NW 22:53:43 10° NNE
Cosmos 1606 2.8 22:49:04 10° N 22:52:56 68° ENE 22:54:21 36° SSE
Cosmos-2242 2.9 22:49:03 10° N 22:53:20 87° WSW 22:55:10 33° S
Cosmos 1812 Rocket 3.7 22:49:36 10° NNW 22:54:03 70° W 22:56:09 30° S
Cosmos 2360 Rocket 2.3 22:51:19 10° NNW 22:57:01 71° ENE 23:00:31 24° SE
ADEOS Rocket 3.6 22:53:14 23° SSE 22:58:19 74° ENE 23:06:07 10° NNW
Cosmos 1340 Rocket 3.7 22:58:42 29° SE 22:59:45 34° E 23:03:21 10° NNE
Gbstr 26 Del rocket 3.4 22:59:00 33° S 23:00:12 41° SE 23:04:50 10° ENE
Cosmos 1821 Rocket 4.0 23:01:34 10° NNW 23:07:47 73° W 23:11:22 26° S
Cosmos 1602 Rocket 3.9 23:05:35 25° SSW 23:07:58 58° WNW 23:12:16 10° N
BREEZE-M DEB (TANK) 4.3 23:12:25 20° ESE 23:12:25 20° ESE 23:14:43 10° E
SL-27 R/B 4.2 23:13:18 18° E 23:13:18 18° E 23:15:25 10° ENE
Cosmos 44 3.6 23:14:09 34° SSE 23:15:21 41° ESE 23:19:34 10° NE
Cosmos 972 Rocket 4.2 23:10:17 10° NNW 23:15:30 71° ENE 23:18:41 27° SSE
Cosmos 2237 4.5 23:14:08 10° NW 23:19:45 57° WSW 23:22:29 29° S
ERS-2 2.9 23:19:01 10° NNE 23:22:21 35° E 23:22:56 33° ESE
Cosmos 2237 Rocket 4.4 23:18:33 10° N 23:22:49 21° NE 23:27:02 10° E
ALOS 2 2.6 23:21:37 36° S 23:23:21 73° WSW 23:27:46 10° NNW
Spot 4 4.4 23:21:49 28° SSW 23:23:58 48° W 23:28:39 10° NNW
CENTAUR R/B 3.8 23:22:31 18° SE 23:24:16 20° ESE 23:28:55 10° ENE
Cosmos 1605 Rocket 4.5 23:18:14 10° N 23:24:32 54° ENE 23:28:27 23° SE
NOSS 8 (A) 4.2 23:29:31 59° SSE 23:29:47 63° SE 23:32:43 10° NE
COSMOS 2428 3.6 23:24:18 10° NNW 23:29:48 44° NE 23:34:37 13° ESE
Cosmos 1777 Rocket 4.3 23:25:39 10° NNW 23:30:49 55° WSW 23:33:07 31° S
H-2A R/B 3.5 23:26:51 10° NNE 23:31:05 82° WNW 23:32:48 35° SSW
Cosmos 2058 2.9 23:29:58 36° SSW 23:31:36 79° WNW 23:35:47 10° N
Nadezhda 3 Rocket 4.1 23:28:02 24° SSW 23:31:53 70° W 23:38:04 10° N
SL-16 R/B 3.2 23:27:17 10° NW 23:32:20 34° WSW 23:34:48 24° SSW
Cosmos 2219 Rocket 2.6 23:27:09 10° NNW 23:32:48 61° ENE 23:36:40 20° SE
Cosmos 1953 Rocket 3.5 23:33:03 37° S 23:34:44 78° E 23:39:09 10° NNE
USA 267 3.2 23:31:40 10° ENE 23:38:15 83° SSE 23:44:49 10° SW
ATLAS 5 CENTAUR R/B 3.3 23:35:19 10° W 23:38:47 30° NNW 23:42:45 10° NNE
SJ 16-02 2.5 23:35:10 10° NW 23:39:06 32° WSW 23:40:31 26° SW
Meteor 2-2 Rocket 4.5 23:35:03 10° NNW 23:41:02 68° W 23:44:11 29° S
SL-4 R/B 1.5 23:40:05 29° WSW 23:41:46 78° SSE 23:45:28 10° ENE
Cosmos 2322 4.0 23:36:17 10° NNW 23:41:58 66° ENE 23:45:45 21° SE
Cosmos 1825 Rocket 3.9 23:41:10 30° SW 23:43:05 57° WNW 23:47:23 10° N
Cosmos 1898 Rocket 4.4 23:38:20 10° NNW 23:43:19 44° ENE 23:47:02 17° SE
COSMOS 2455 4.3 23:44:48 10° NNW 23:50:19 36° NE 23:55:50 10° ESE
Cosmos 2221 2.5 23:46:14 10° N 23:50:38 87° W 23:52:14 39° S
PSLV R/B 3.9 23:49:02 10° NNE 23:53:46 63° E 23:55:36 35° S
